AV751 Weather Reports


Display with metric or nautical units.
time (UTC)temp
F
wind
direction
speed
MPH
gust
MPH
rain 1hr
in
rain 24hr
in
rain mn
in
humidity
%
barometer
mb
20260510222504 43 0 0.0 0.0 0.00 0.00 0.00 70 995.4
20260510222004 44 0 0.0 0.0 0.00 0.00 0.00 70 995.6
20260510221504 44 0 0.0 0.0 0.00 0.00 0.00 70 995.6
20260510221004 44 0 0.0 0.0 0.00 0.00 0.00 69 995.7
20260510220714 44 0 0.0 0.0 0.00 0.00 0.00 70 995.7
20260510220004 44 0 0.0 0.0 0.00 0.00 0.00 70 995.9
20260510215504 44 0 0.0 0.0 0.00 0.00 0.00 69 995.8
20260510215004 45 0 0.0 0.0 0.00 0.00 0.00 68 995.8
20260510214504 45 0 0.0 0.0 0.00 0.00 0.00 67 995.7
20260510214004 45 0 0.0 0.0 0.00 0.00 0.00 67 995.8
20260510213504 45 0 0.0 0.0 0.00 0.00 0.00 66 995.8
20260510213215 45 0 0.0 0.0 0.00 0.00 0.00 65 995.8
20260510212718 45 0 0.0 0.0 0.00 0.00 0.00 65 995.7
20260510212004 46 0 0.0 0.0 0.00 0.00 0.00 61 995.9
20260510211504 46 0 0.0 0.0 0.00 0.00 0.00 61 995.8
20260510211004 46 0 0.0 0.0 0.00 0.00 0.00 60 996.0
20260510210504 46 0 0.0 0.0 0.00 0.00 0.00 60 995.9
20260510210004 47 180 0.0 1.0 0.00 0.00 0.00 59 996.0
20260510205504 47 180 0.0 1.0 0.00 0.00 0.00 57 995.9
20260510205004 47 180 0.0 1.0 0.00 0.00 0.00 55 995.8
20260510204504 48 165 0.0 2.0 0.00 0.00 0.00 55 995.9
20260510204004 48 155 1.0 2.0 0.00 0.00 0.00 55 995.9
20260510203504 48 141 0.0 2.0 0.00 0.00 0.00 54 996.0
20260510203004 48 168 0.0 2.0 0.00 0.00 0.00 54 995.8
20260510202504 49 158 0.0 2.0 0.00 0.00 0.00 53 995.8
20260510202004 49 131 0.0 1.0 0.00 0.00 0.00 53 995.8
20260510201504 49 112 0.0 2.0 0.00 0.00 0.00 52 995.9
20260510201004 50 120 0.0 2.0 0.00 0.00 0.00 52 996.1
20260510200504 50 125 0.0 2.0 0.00 0.00 0.00 52 996.1
20260510200218 50 118 1.0 3.0 0.00 0.00 0.00 51 996.1
20260510195504 51 87 1.0 3.0 0.00 0.00 0.00 51 996.0
20260510195004 51 109 1.0 2.0 0.00 0.00 0.00 50 996.2
20260510194504 51 124 1.0 3.0 0.00 0.00 0.00 50 996.1
20260510194215 51 143 0.0 4.0 0.00 0.00 0.00 50 996.3
20260510193504 51 152 2.0 4.0 0.00 0.00 0.00 49 996.1
20260510193004 52 128 1.0 4.0 0.00 0.00 0.00 48 996.1
20260510192504 52 94 0.0 4.0 0.00 0.00 0.00 47 996.1
20260510192004 52 57 1.0 3.0 0.00 0.00 0.00 46 996.3
20260510191505 53 65 2.0 3.0 0.00 0.00 0.00 46 996.2
20260510191004 53 63 2.0 4.0 0.00 0.00 0.00 45 996.2
20260510190504 53 51 1.0 4.0 0.00 0.00 0.00 45 996.2
20260510190004 53 46 1.0 3.0 0.00 0.00 0.00 45 996.3
20260510185504 53 63 1.0 2.0 0.00 0.00 0.00 45 996.4
20260510185215 53 91 0.0 2.0 0.00 0.00 0.00 45 996.2
20260510184504 53 78 0.0 4.0 0.00 0.00 0.00 44 996.4
20260510184004 54 71 1.0 4.0 0.00 0.00 0.00 44 996.4
20260510183504 54 57 2.0 4.0 0.00 0.00 0.00 44 996.2
20260510183217 54 43 3.0 4.0 0.00 0.00 0.00 44 996.2
20260510182504 54 77 1.0 4.0 0.00 0.00 0.00 43 996.4
20260510182004 54 110 0.0 2.0 0.00 0.00 0.00 43 996.3
20260510181504 54 56 1.0 2.0 0.00 0.00 0.00 44 996.3
20260510181004 54 30 1.0 2.0 0.00 0.00 0.00 44 996.4
20260510180504 54 62 0.0 4.0 0.00 0.00 0.00 43 996.3
20260510180004 54 75 2.0 4.0 0.00 0.00 0.00 40 996.3
20260510175504 55 61 2.0 5.0 0.00 0.00 0.00 41 996.4
20260510175004 55 47 2.0 5.0 0.00 0.00 0.00 41 996.3
20260510174504 55 43 2.0 5.0 0.00 0.00 0.00 40 996.3
20260510174004 56 44 4.0 5.0 0.00 0.00 0.00 40 996.3
20260510173504 56 62 3.0 5.0 0.00 0.00 0.00 40 996.4
20260510173004 56 70 2.0 4.0 0.00 0.00 0.00 40 996.4
20260510172504 56 82 2.0 5.0 0.00 0.00 0.00 40 996.2
20260510172004 56 79 3.0 5.0 0.00 0.00 0.00 40 996.3
20260510171504 56 72 4.0 5.0 0.00 0.00 0.00 40 996.3
20260510171004 56 26 2.0 7.0 0.00 0.00 0.00 40 996.2
20260510170504 56 27 1.0 7.0 0.00 0.00 0.00 40 996.6
20260510170004 56 18 2.0 4.0 0.00 0.00 0.00 40 996.8
20260510165718 56 19 2.0 5.0 0.00 0.00 0.00 40 996.9
20260510165004 56 62 2.0 5.0 0.00 0.00 0.00 39 996.6
20260510164504 56 34 2.0 4.0 0.00 0.00 0.00 38 996.8
20260510164004 57 7 2.0 3.0 0.00 0.00 0.00 38 996.8
20260510163504 57 39 2.0 4.0 0.00 0.00 0.00 38 996.8
20260510163004 58 82 2.0 4.0 0.00 0.00 0.00 37 996.8
20260510162504 58 74 2.0 7.0 0.00 0.00 0.00 36 996.9
20260510162004 59 58 2.0 7.0 0.00 0.00 0.00 36 996.9
20260510161717 58 55 2.0 6.0 0.00 0.00 0.00 37 997.0
20260510161004 58 72 4.0 6.0 0.00 0.00 0.00 36 997.2
20260510160504 58 52 2.0 4.0 0.00 0.00 0.00 34 997.0
20260510160004 59 9 2.0 4.0 0.00 0.00 0.00 35 997.3
20260510155504 59 7 2.0 6.0 0.00 0.00 0.00 35 997.0
20260510155004 59 37 2.0 6.0 0.00 0.00 0.00 35 997.3
20260510154504 59 34 4.0 6.0 0.00 0.00 0.00 35 997.3
20260510154004 59 42 3.0 8.0 0.00 0.00 0.00 33 997.3
20260510153504 61 41 2.0 8.0 0.00 0.00 0.00 32 997.3
20260510153004 63 22 2.0 4.0 0.00 0.00 0.00 34 997.3
20260510152504 62 344 1.0 4.0 0.00 0.00 0.00 36 997.2
20260510152214 60 47 1.0 5.0 0.00 0.00 0.00 37 997.2
20260510151504 59 37 2.0 5.0 0.00 0.00 0.00 34 997.2
20260510151004 60 26 2.0 6.0 0.00 0.00 0.00 33 997.4
20260510150504 62 40 2.0 6.0 0.00 0.00 0.00 33 997.3
20260510150004 63 48 4.0 6.0 0.00 0.00 0.00 36 997.4
20260510145504 60 28 2.0 5.0 0.00 0.00 0.00 37 997.7
20260510145004 58 43 2.0 6.0 0.00 0.00 0.00 36 997.9
20260510144504 59 84 3.0 7.0 0.00 0.00 0.00 34 997.6
20260510144004 61 100 4.0 7.0 0.00 0.00 0.00 33 997.8
20260510143504 62 73 2.0 4.0 0.00 0.00 0.00 34 997.9
20260510143004 60 70 2.0 7.0 0.00 0.00 0.00 37 998.0
20260510142504 59 63 4.0 9.0 0.00 0.00 0.00 35 997.8
20260510142004 59 62 4.0 9.0 0.00 0.00 0.00 34 998.1
20260510141718 60 61 4.0 9.0 0.00 0.00 0.00 34 997.8
20260510141004 61 39 2.0 8.0 0.00 0.00 0.00 34 998.0
20260510140504 61 57 2.0 8.0 0.00 0.00 0.00 36 998.1
20260510140004 59 82 2.0 8.0 0.00 0.00 0.00 36 998.4
20260510135504 59 53 3.0 8.0 0.00 0.00 0.00 34 998.3
20260510135004 60 17 3.0 8.0 0.00 0.00 0.00 33 998.3
20260510134505 61 43 2.0 5.0 0.00 0.00 0.00 36 998.4
20260510134004 61 52 2.0 9.0 0.00 0.00 0.00 36 998.5
20260510133504 60 38 3.0 9.0 0.00 0.00 0.00 37 998.5
20260510133004 60 41 4.0 10.0 0.00 0.00 0.00 36 998.5
20260510132504 60 47 3.0 10.0 0.00 0.00 0.00 35 998.8
20260510132004 61 25 4.0 6.0 0.00 0.00 0.00 35 998.8
20260510131504 62 17 3.0 6.0 0.00 0.00 0.00 35 999.0
20260510131004 62 26 3.0 4.0 0.00 0.00 0.00 37 998.8
20260510130504 61 35 2.0 8.0 0.00 0.00 0.00 38 998.9
20260510130004 60 47 3.0 8.0 0.00 0.00 0.00 40 999.1
20260510125504 60 58 4.0 8.0 0.00 0.00 0.00 40 999.3
20260510125004 58 50 2.0 7.0 0.00 0.00 0.00 37 999.3
20260510124504 59 61 3.0 7.0 0.00 0.00 0.00 39 999.3
20260510124004 59 82 4.0 7.0 0.00 0.00 0.00 40 999.4
20260510123504 59 59 5.0 7.0 0.00 0.00 0.00 40 999.4
20260510123215 60 47 3.0 8.0 0.00 0.00 0.00 40 999.6
20260510122504 59 63 3.0 8.0 0.00 0.00 0.00 42 999.6
20260510122004 58 38 4.0 9.0 0.00 0.00 0.00 42 999.8
20260510121504 58 28 4.0 11.0 0.00 0.00 0.00 41 999.7
20260510121004 60 71 2.0 11.0 0.00 0.00 0.00 41 999.9
20260510120504 59 75 2.0 9.0 0.00 0.00 0.00 41 999.8
20260510120004 58 64 4.0 9.0 0.00 0.00 0.00 43 999.9
20260510115504 57 66 3.0 8.0 0.00 0.00 0.00 42 1000.0
20260510115004 58 63 4.0 8.0 0.00 0.00 0.00 41 1000.3
20260510114504 58 65 3.0 8.0 0.00 0.00 0.00 41 1000.3
20260510114004 59 50 2.0 5.0 0.00 0.00 0.00 41 1000.3
20260510113504 59 51 4.0 8.0 0.00 0.00 0.00 41 1000.3
20260510113004 58 62 4.0 8.0 0.00 0.00 0.00 41 1000.3
20260510112504 57 52 4.0 8.0 0.00 0.00 0.00 40 1000.6
20260510112004 57 43 5.0 8.0 0.00 0.00 0.00 40 1000.6
20260510111504 58 40 3.0 6.0 0.00 0.00 0.00 41 1000.6
20260510111004 58 13 3.0 8.0 0.00 0.00 0.00 43 1001.0
20260510110504 57 27 3.0 9.0 0.00 0.00 0.00 42 1000.9
20260510110005 57 59 3.0 9.0 0.00 0.00 0.00 42 1000.9
20260510105504 56 48 5.0 8.0 0.00 0.00 0.00 43 1000.9
20260510105004 56 51 6.0 8.0 0.00 0.00 0.00 43 1000.9
20260510104504 56 60 4.0 8.0 0.00 0.00 0.00 42 1001.2
20260510104004 56 56 4.0 11.0 0.00 0.00 0.00 45 1001.1
20260510103713 56 57 2.0 11.0 0.00 0.00 0.00 47 1001.2
20260510103004 55 67 7.0 11.0 0.00 0.00 0.00 46 1001.2
20260510102504 55 37 6.0 8.0 0.00 0.00 0.00 46 1001.3
20260510102004 55 18 3.0 6.0 0.00 0.00 0.00 49 1001.1
20260510101504 55 34 4.0 9.0 0.00 0.00 0.00 46 1001.2
20260510101004 55 53 3.0 9.0 0.00 0.00 0.00 48 1001.3
20260510100716 55 57 6.0 9.0 0.00 0.00 0.00 48 1001.2
20260510100005 55 88 6.0 11.0 0.00 0.00 0.00 49 1001.5
20260510095504 54 82 8.0 11.0 0.00 0.00 0.00 50 1001.5
20260510095004 54 48 4.0 9.0 0.00 0.00 0.00 51 1001.7
20260510094504 54 41 4.0 9.0 0.00 0.00 0.00 51 1001.5
20260510094216 54 49 6.0 9.0 0.00 0.00 0.00 51 1001.7
20260510093504 53 69 5.0 8.0 0.00 0.00 0.00 54 1001.7
20260510093004 53 63 6.0 8.0 0.00 0.00 0.00 56 1001.8
20260510092504 53 42 4.0 8.0 0.00 0.00 0.00 56 1001.6
20260510092218 53 36 4.0 8.0 0.00 0.00 0.00 58 1001.6
20260510091504 54 34 3.0 5.0 0.00 0.00 0.00 60 1001.7
20260510091004 54 360 2.0 5.0 0.00 0.00 0.00 59 1001.7
20260510090504 54 38 2.0 9.0 0.00 0.00 0.00 63 1001.8
20260510090215 53 42 2.0 9.0 0.00 0.00 0.00 63 1001.8
20260510085504 52 49 3.0 7.0 0.00 0.00 0.00 62 1002.2
20260510085004 52 53 3.0 7.0 0.00 0.00 0.00 63 1002.1
20260510084504 52 32 2.0 4.0 0.00 0.00 0.00 64 1002.1
20260510084217 52 30 2.0 4.0 0.00 0.00 0.00 64 1002.1
20260510083504 51 46 2.0 5.0 0.00 0.00 0.00 64 1002.1
20260510083004 51 40 3.0 5.0 0.00 0.00 0.00 64 1002.1
20260510082716 51 34 3.0 6.0 0.00 0.00 0.00 64 1001.8
20260510082004 51 21 2.0 7.0 0.00 0.00 0.00 66 1002.2
20260510081717 50 20 4.0 7.0 0.00 0.00 0.00 66 1002.2
20260510081005 50 41 4.0 8.0 0.00 0.00 0.00 67 1002.2
20260510080504 50 52 5.0 8.0 0.00 0.00 0.00 66 1002.3
20260510080004 50 64 2.0 8.0 0.00 0.00 0.00 66 1002.2
20260510075505 50 56 4.0 8.0 0.00 0.00 0.00 65 1002.1
20260510075004 50 51 3.0 9.0 0.00 0.00 0.00 65 1002.1
20260510074504 50 52 2.0 9.0 0.00 0.00 0.00 64 1002.0
20260510074004 50 52 5.0 9.0 0.00 0.00 0.00 65 1002.1
20260510073504 50 36 4.0 8.0 0.00 0.00 0.00 65 1002.2
20260510073004 50 22 2.0 6.0 0.00 0.00 0.00 67 1002.2
20260510072504 50 35 4.0 7.0 0.00 0.00 0.00 67 1002.3
20260510072004 50 30 4.0 7.0 0.00 0.00 0.00 67 1002.2
20260510071504 51 42 3.0 7.0 0.00 0.00 0.00 68 1002.3
20260510071004 51 41 2.0 8.0 0.00 0.00 0.00 69 1002.2
20260510070504 51 31 4.0 11.0 0.00 0.00 0.00 69 1002.3
20260510070004 50 31 4.0 11.0 0.00 0.00 0.00 69 1002.2
20260510065504 51 50 3.0 6.0 0.00 0.00 0.00 70 1002.2
20260510065217 51 41 2.0 6.0 0.00 0.00 0.00 70 1002.2
20260510064504 50 21 2.0 4.0 0.00 0.00 0.00 71 1002.2
20260510064004 50 38 2.0 5.0 0.00 0.00 0.00 72 1002.2
20260510063716 49 41 3.0 7.0 0.00 0.00 0.00 72 1002.1
20260510063004 49 36 3.0 7.0 0.00 0.00 0.00 72 1002.2
20260510062504 49 50 2.0 8.0 0.00 0.00 0.00 72 1002.2
20260510062004 49 32 3.0 8.0 0.00 0.00 0.00 73 1002.2
20260510061504 49 7 2.0 6.0 0.00 0.00 0.00 73 1002.2
20260510061004 48 22 4.0 6.0 0.00 0.00 0.00 73 1002.1
20260510060504 48 24 2.0 4.0 0.00 0.00 0.00 73 1002.4
20260510060005 48 11 2.0 4.0 0.00 0.00 0.00 73 1002.4
20260510055504 48 7 2.0 4.0 0.00 0.00 0.00 73 1002.2
20260510055004 48 11 3.0 4.0 0.00 0.00 0.00 73 1002.3
20260510054716 48 13 2.0 4.0 0.00 0.00 0.00 73 1002.4
20260510054004 48 7 2.0 4.0 0.00 0.00 0.00 73 1002.5
20260510053504 48 2 2.0 4.0 0.00 0.00 0.00 73 1002.4
20260510053004 48 8 2.0 4.0 0.00 0.00 0.00 73 1002.2
20260510052504 48 32 2.0 5.0 0.00 0.00 0.00 72 1002.4
20260510052215 48 33 3.0 6.0 0.00 0.00 0.00 72 1002.2
20260510051504 48 17 3.0 6.0 0.00 0.00 0.00 73 1002.0
20260510051216 48 14 3.0 6.0 0.00 0.00 0.00 73 1001.9
20260510050504 48 26 3.0 8.0 0.00 0.00 0.00 73 1001.9
20260510050004 48 20 3.0 6.0 0.00 0.00 0.00 73 1002.2
20260510045504 47 21 3.0 7.0 0.00 0.00 0.00 73 1002.3
20260510045004 47 12 2.0 7.0 0.00 0.00 0.00 74 1002.1
20260510044504 47 1 4.0 7.0 0.00 0.00 0.00 74 1002.0
20260510044004 47 4 2.0 4.0 0.00 0.00 0.00 74 1002.2
20260510043504 48 18 2.0 4.0 0.00 0.00 0.00 74 1002.3
20260510043004 48 2 2.0 4.0 0.00 0.00 0.00 74 1002.2
20260510042504 48 1 2.0 4.0 0.00 0.00 0.00 75 1002.2
20260510042004 48 18 1.0 4.0 0.00 0.00 0.00 75 1002.2
20260510041504 48 359 2.0 4.0 0.00 0.00 0.00 75 1002.3
20260510041004 48 1 1.0 4.0 0.00 0.00 0.00 75 1002.5
20260510040504 48 18 2.0 4.0 0.00 0.00 0.00 76 1002.3
20260510040004 48 10 2.0 4.0 0.00 0.00 0.00 76 1002.1
20260510035504 48 360 2.0 4.0 0.00 0.00 0.00 76 1002.2
20260510035004 48 14 1.0 4.0 0.00 0.00 0.00 76 1002.3
20260510034504 48 41 1.0 4.0 0.00 0.00 0.00 76 1002.3
20260510034004 48 41 2.0 4.0 0.00 0.00 0.00 77 1002.4
20260510033504 48 49 2.0 7.0 0.00 0.00 0.00 77 1002.2
20260510033004 48 45 2.0 7.0 0.00 0.00 0.00 77 1002.2
20260510032504 48 39 4.0 7.0 0.00 0.00 0.00 77 1002.1
20260510032004 48 35 3.0 6.0 0.00 0.00 0.00 77 1002.1
20260510031504 48 19 2.0 4.0 0.00 0.00 0.00 77 1002.2
20260510031004 48 10 2.0 4.0 0.00 0.00 0.00 77 1002.6
20260510030504 48 10 2.0 4.0 0.00 0.00 0.00 77 1002.5
20260510030004 48 37 2.0 4.0 0.00 0.00 0.00 77 1002.7
20260510025504 49 34 2.0 4.0 0.00 0.00 0.00 77 1002.7
20260510025004 49 16 2.0 4.0 0.00 0.00 0.00 78 1002.7
20260510024504 49 17 2.0 4.0 0.00 0.00 0.00 78 1002.6
20260510024004 49 19 3.0 4.0 0.00 0.00 0.00 78 1002.7
20260510023504 49 16 3.0 4.0 0.00 0.00 0.00 79 1002.7
20260510023216 49 19 2.0 4.0 0.00 0.00 0.00 79 1002.6
20260510022504 49 36 2.0 5.0 0.00 0.00 0.00 79 1002.6
20260510022004 49 31 2.0 5.0 0.00 0.00 0.00 80 1002.6
20260510021504 49 25 3.0 5.0 0.00 0.00 0.00 80 1002.6
20260510021004 49 26 2.0 4.0 0.00 0.00 0.00 80 1002.5
20260510020504 49 7 2.0 5.0 0.00 0.00 0.00 80 1002.3
20260510020005 49 358 2.0 5.0 0.00 0.00 0.00 81 1002.3
20260510015504 49 359 2.0 4.0 0.00 0.00 0.00 81 1002.3
20260510015004 49 360 2.0 5.0 0.00 0.00 0.00 81 1002.2
20260510014504 49 4 2.0 5.0 0.00 0.00 0.00 81 1002.2
20260510014004 49 23 2.0 4.0 0.00 0.00 0.00 81 1002.3
20260510013504 49 29 1.0 4.0 0.00 0.00 0.00 81 1002.4
20260510013004 49 20 2.0 4.0 0.00 0.00 0.00 81 1002.5
20260510012504 49 21 2.0 4.0 0.00 0.00 0.00 81 1002.4
20260510012004 49 38 2.0 4.0 0.00 0.00 0.00 81 1002.3
20260510011504 49 48 4.0 4.0 0.00 0.00 0.00 81 1002.3
20260510011004 49 38 2.0 4.0 0.00 0.00 0.00 82 1002.3
20260510010504 49 45 2.0 4.0 0.00 0.00 0.00 82 1002.6
20260510010005 49 34 2.0 4.0 0.00 0.00 0.00 82 1002.4
20260510005504 49 7 2.0 4.0 0.00 0.00 0.00 82 1002.3
20260510005216 49 17 2.0 5.0 0.00 0.00 0.00 82 1002.5
20260510004504 49 38 2.0 5.0 0.00 0.00 0.00 83 1002.5
20260510004004 49 67 1.0 5.0 0.00 0.00 0.00 83 1002.4
20260510003504 49 58 2.0 5.0 0.00 0.00 0.00 83 1002.7
20260510003004 49 46 2.0 4.0 0.00 0.00 0.00 83 1002.6
20260510002504 49 33 2.0 4.0 0.00 0.00 0.00 83 1002.4
20260510002004 49 16 2.0 4.0 0.00 0.00 0.00 84 1002.3
20260510001504 49 17 2.0 4.0 0.00 0.00 0.00 84 1002.6
20260510001004 49 60 1.0 4.0 0.00 0.00 0.00 84 1002.5
20260510000504 49 54 1.0 6.0 0.00 0.00 0.00 85 1002.4
20260510000005 49 26 2.0 6.0 0.00 0.00 0.00 85 1002.6
20260509235504 49 19 4.0 6.0 0.00 0.00 0.00 85 1002.2
20260509235004 49 23 2.0 6.0 0.00 0.00 0.00 85 1002.4
20260509234504 49 8 2.0 5.0 0.00 0.00 0.00 85 1002.6
20260509234004 49 6 2.0 5.0 0.00 0.00 0.00 85 1002.7
20260509233504 49 26 4.0 5.0 0.00 0.00 0.00 85 1002.5
20260509233004 49 30 2.0 5.0 0.00 0.00 0.00 84 1002.4
20260509232504 49 5 2.0 4.0 0.00 0.00 0.00 84 1002.6
20260509232004 49 355 2.0 5.0 0.00 0.00 0.00 84 1002.3
20260509231504 49 19 2.0 5.0 0.00 0.00 0.00 84 1002.4
20260509231004 50 354 2.0 4.0 0.00 0.00 0.00 84 1002.6
20260509230504 50 12 3.0 6.0 0.00 0.00 0.00 83 1002.4
20260509230005 50 22 2.0 6.0 0.00 0.00 0.00 83 1002.4
20260509225504 50 360 2.0 4.0 0.00 0.00 0.00 82 1002.5
20260509225217 50 1 2.0 4.0 0.00 0.00 0.00 82 1002.5
20260509224504 50 25 2.0 7.0 0.00 0.00 0.00 82 1002.3
20260509224004 51 22 4.0 7.0 0.00 0.00 0.00 82 1002.3
20260509223716 51 18 3.0 7.0 0.00 0.00 0.00 82 1002.2
20260509223004 51 10 2.0 4.0 0.00 0.00 0.00 82 1002.1
20260509222717 51 360 2.0 4.0 0.00 0.00 0.00 82 1002.1